| time (UTC) | temp F | wind direction | speed MPH | gust MPH | rain 1hr in | rain 24hr in | rain mn in | humidity % | barometer mb |
| 20260503220052 | 48 | 0 | 0.0 | 5.0 | 0.01 | 0.05 | 0.05 | 85 | 1006.3 |
| 20260503214551 | 48 | 0 | 0.0 | 2.0 | 0.01 | 0.04 | 0.04 | 85 | 1006.4 |
| 20260503213103 | 48 | 0 | 0.0 | 3.0 | 0.01 | 0.04 | 0.04 | 85 | 1006.2 |
| 20260503211556 | 47 | 133 | 1.0 | 4.0 | 0.00 | 0.03 | 0.03 | 85 | 1006.1 |
| 20260503210059 | 48 | 210 | 1.0 | 5.0 | 0.00 | 0.03 | 0.03 | 84 | 1006.1 |
| 20260503204619 | 49 | 176 | 1.0 | 11.0 | 0.00 | 0.03 | 0.03 | 81 | 1006.2 |
| 20260503203100 | 48 | 200 | 1.0 | 6.0 | 0.00 | 0.03 | 0.03 | 83 | 1006.1 |
| 20260503201552 | 48 | 198 | 1.0 | 7.0 | 0.00 | 0.03 | 0.03 | 85 | 1006.2 |
| 20260503200054 | 47 | 209 | 2.0 | 6.0 | 0.01 | 0.03 | 0.03 | 86 | 1006.6 |
| 20260503194555 | 47 | 154 | 1.0 | 8.0 | 0.03 | 0.03 | 0.03 | 86 | 1006.9 |
| 20260503193059 | 46 | 214 | 1.0 | 3.0 | 0.03 | 0.03 | 0.03 | 87 | 1007.1 |
| 20260503191610 | 46 | 218 | 0.0 | 5.0 | 0.02 | 0.02 | 0.02 | 86 | 1007.3 |
| 20260503190051 | 47 | 277 | 3.0 | 12.0 | 0.01 | 0.01 | 0.01 | 83 | 1007.9 |
| 20260503184553 | 51 | 209 | 4.0 | 13.0 | 0.00 | 0.00 | 0.00 | 71 | 1008.0 |
| 20260503183058 | 54 | 253 | 6.0 | 14.0 | 0.00 | 0.00 | 0.00 | 55 | 1007.5 |
| 20260503181554 | 56 | 245 | 4.0 | 15.0 | 0.00 | 0.00 | 0.00 | 50 | 1007.3 |
| 20260503174556 | 56 | 291 | 2.0 | 8.0 | 0.00 | 0.00 | 0.00 | 47 | 1007.6 |
| 20260503173051 | 56 | 275 | 3.0 | 9.0 | 0.00 | 0.00 | 0.00 | 47 | 1007.6 |
| 20260503171553 | 55 | 272 | 3.0 | 12.0 | 0.00 | 0.00 | 0.00 | 45 | 1008.0 |
| 20260503170105 | 54 | 247 | 3.0 | 9.0 | 0.00 | 0.00 | 0.00 | 47 | 1007.9 |
| 20260503160106 | 55 | 197 | 2.0 | 8.0 | 0.00 | 0.00 | 0.00 | 44 | 1008.3 |
| 20260503100104 | 28 | 0 | 0.0 | 0.0 | 0.00 | 0.00 | 0.00 | 86 | 1011.0 |
| 20260503081553 | 29 | 0 | 0.0 | 1.0 | 0.00 | 0.00 | 0.00 | 83 | 1011.4 |
| 20260503071603 | 29 | 0 | 0.0 | 0.0 | 0.00 | 0.00 | 0.00 | 82 | 1011.3 |
| 20260503054606 | 28 | 0 | 0.0 | 0.0 | 0.00 | 0.00 | 0.00 | 85 | 1012.1 |
| 20260503053058 | 28 | 0 | 0.0 | 0.0 | 0.00 | 0.00 | 0.00 | 84 | 1012.4 |
| 20260503051555 | 28 | 0 | 0.0 | 0.0 | 0.00 | 0.00 | 0.00 | 84 | 1012.6 |
| 20260503050051 | 28 | 0 | 0.0 | 0.0 | 0.00 | 0.00 | 0.00 | 82 | 1012.7 |
| 20260503044554 | 29 | 0 | 0.0 | 0.0 | 0.00 | 0.00 | 0.00 | 81 | 1013.0 |
| 20260503043058 | 29 | 0 | 0.0 | 0.0 | 0.00 | 0.00 | 0.00 | 81 | 1013.0 |
| 20260503041552 | 29 | 0 | 0.0 | 0.0 | 0.00 | 0.00 | 0.00 | 82 | 1013.2 |
| 20260503040057 | 29 | 0 | 0.0 | 0.0 | 0.00 | 0.00 | 0.00 | 82 | 1013.1 |
| 20260503034552 | 29 | 0 | 0.0 | 0.0 | 0.00 | 0.00 | 0.00 | 82 | 1013.2 |
| 20260503033058 | 29 | 0 | 0.0 | 0.0 | 0.00 | 0.00 | 0.00 | 81 | 1013.3 |
| 20260503031553 | 30 | 0 | 0.0 | 0.0 | 0.00 | 0.00 | 0.00 | 79 | 1013.4 |
| 20260503030052 | 30 | 0 | 0.0 | 0.0 | 0.00 | 0.00 | 0.00 | 78 | 1013.4 |
| 20260503024555 | 31 | 0 | 0.0 | 0.0 | 0.00 | 0.00 | 0.00 | 75 | 1013.7 |
| 20260503023059 | 31 | 0 | 0.0 | 0.0 | 0.00 | 0.00 | 0.00 | 75 | 1013.7 |
| 20260503021553 | 32 | 0 | 0.0 | 0.0 | 0.00 | 0.00 | 0.00 | 68 | 1013.8 |
| 20260503020053 | 33 | 0 | 0.0 | 0.0 | 0.00 | 0.00 | 0.00 | 68 | 1013.7 |
| 20260503014602 | 34 | 0 | 0.0 | 0.0 | 0.00 | 0.00 | 0.00 | 60 | 1013.7 |
| 20260503013053 | 35 | 0 | 0.0 | 0.0 | 0.00 | 0.00 | 0.00 | 57 | 1013.7 |
| 20260503011553 | 36 | 0 | 0.0 | 0.0 | 0.00 | 0.00 | 0.00 | 54 | 1013.6 |
| 20260503010054 | 37 | 0 | 0.0 | 0.0 | 0.00 | 0.00 | 0.00 | 52 | 1013.7 |
| 20260503004553 | 39 | 0 | 0.0 | 0.0 | 0.00 | 0.00 | 0.00 | 50 | 1013.5 |
| 20260503003055 | 40 | 0 | 0.0 | 1.0 | 0.00 | 0.00 | 0.00 | 45 | 1013.5 |
| 20260503001608 | 41 | 231 | 0.0 | 2.0 | 0.00 | 0.00 | 0.00 | 42 | 1013.5 |
| 20260503000109 | 42 | 0 | 0.0 | 4.0 | 0.00 | 0.00 | 0.00 | 42 | 1013.6 |
| 20260502234606 | 42 | 304 | 1.0 | 5.0 | 0.00 | 0.00 | 0.00 | 39 | 1013.6 |
| 20260502233056 | 43 | 254 | 2.0 | 8.0 | 0.00 | 0.00 | 0.00 | 38 | 1013.6 |
| 20260502231559 | 44 | 264 | 2.0 | 8.0 | 0.00 | 0.00 | 0.00 | 37 | 1013.6 |
| 20260502230052 | 44 | 227 | 3.0 | 9.0 | 0.00 | 0.00 | 0.00 | 37 | 1013.5 |
| 20260502224552 | 44 | 266 | 3.0 | 9.0 | 0.00 | 0.00 | 0.00 | 36 | 1013.7 |
| 20260502223057 | 45 | 303 | 2.0 | 7.0 | 0.00 | 0.00 | 0.00 | 37 | 1013.4 |
| 20260502221556 | 46 | 302 | 3.0 | 6.0 | 0.00 | 0.00 | 0.00 | 35 | 1013.5 |